Wind_Speed
8 6 5 4 4 3 3 4 4 6 6 7 7 7 7 7 6 6 5 4 2 1 0 2 3 4 4 5 5 6 7 8 8 7 8 8 8 8 8 8 8 8 7 7 6 6 5 5 5
9 8 6 5 5 4 4 4 5 6 7 8 7 7 7 7 6 6 5 4 2 1 1 2 3 4 4 5 6 7 8 8 8 8 8 8 8 9 9 9 9 9 8 7 7 6 6 6 6
10 9 7 6 6 6 6 5 6 6 6 8 7 7 7 6 6 5 4 3 2 1 1 2 3 4 4 5 7 7 8 9 9 8 9 8 8 9 9 9 10 9 9 8 7 6 6 6 6
11 9 8 7 7 7 7 7 7 6 6 7 8 7 7 6 6 5 5 3 2 1 1 2 3 4 5 6 7 8 9 9 9 9 9 9 9 9 10 10 10 10 10 9 8 7 7 6 6
12 10 9 8 8 8 7 7 7 7 7 7 8 8 7 6 6 5 5 3 1 0 1 2 3 4 5 6 7 8 8 9 9 9 9 10 10 10 11 11 11 10 10 9 8 8 7 6 6
13 11 10 9 8 8 8 7 7 7 7 8 8 8 7 6 6 6 5 3 1 0 1 3 4 5 6 6 7 8 8 9 9 9 10 11 11 11 11 11 11 10 10 10 9 8 7 7 7
14 12 11 9 8 8 7 7 7 7 6 7 7 7 7 7 6 5 4 2 1 0 2 3 4 5 6 6 7 7 8 9 9 10 11 11 12 12 11 11 11 11 10 9 9 8 8 7 8
15 14 12 11 10 9 8 8 8 8 6 6 7 8 8 7 6 5 3 2 1 1 2 3 4 5 5 6 7 8 9 9 10 11 11 12 12 12 12 11 11 11 10 9 9 9 8 8 8
16 15 14 13 12 11 10 9 9 9 7 7 8 8 7 6 5 4 3 1 1 2 3 3 4 5 5 6 7 8 9 10 10 11 11 12 12 12 12 11 11 11 10 9 9 9 8 8 8
17 16 15 14 13 12 11 10 9 8 8 7 8 8 7 6 5 4 2 1 1 2 2 3 4 5 5 6 7 8 9 10 10 11 11 12 12 12 12 12 11 10 10 10 9 9 9 8 8
18 17 16 14 13 12 12 10 10 9 8 8 8 8 7 6 5 3 2 2 1 1 2 3 4 4 5 6 7 8 9 10 10 11 11 12 12 13 12 12 11 10 10 10 9 9 8 8 7
20 19 17 15 14 13 12 11 10 10 9 8 8 8 8 7 6 4 3 2 1 1 1 3 3 4 5 6 8 8 9 9 10 11 12 12 13 13 12 12 12 11 10 10 9 8 8 7 7
21 20 18 17 15 14 13 12 11 10 10 9 9 9 9 7 5 3 2 2 1 1 1 2 3 3 5 6 7 8 9 9 10 11 12 12 12 13 13 13 12 12 11 10 9 8 7 6 5
21 20 19 18 16 15 14 13 12 12 11 10 10 10 9 8 6 4 3 2 1 0 1 2 3 4 5 6 7 8 8 9 10 11 12 12 13 13 13 12 12 12 11 10 10 9 7 6 4
22 21 20 19 17 16 15 15 14 13 12 11 11 10 9 8 6 5 4 3 2 1 1 2 3 4 5 6 7 7 8 9 11 11 12 12 13 14 13 12 13 13 12 11 11 9 7 5 4
23 23 21 20 19 18 16 16 15 14 13 13 12 10 9 8 6 5 5 4 3 2 2 2 3 4 5 5 6 7 8 9 10 11 12 12 13 14 13 13 13 13 13 12 11 10 8 6 4
24 22 22 22 21 20 18 17 16 15 14 14 12 11 9 8 7 6 5 5 4 3 2 2 2 3 4 5 6 7 8 9 10 11 12 13 13 14 14 14 14 14 14 13 12 11 9 7 6
24 23 23 23 23 21 19 18 16 15 15 14 13 11 10 8 8 7 6 5 4 3 2 2 2 3 3 4 5 6 7 8 10 11 12 13 14 14 15 15 15 15 14 14 13 12 11 10 8
24 24 23 23 23 21 19 18 17 16 15 13 13 12 11 9 8 7 6 6 4 4 3 3 2 3 4 5 6 6 7 8 10 11 12 13 14 15 16 16 16 16 15 14 14 13 12 11 10
25 25 24 23 22 20 20 18 17 16 15 14 13 12 11 10 8 7 7 6 5 4 4 4 3 3 4 5 6 7 8 9 10 10 11 12 14 16 16 17 16 16 16 15 15 14 13 13 11
26 26 24 23 22 21 21 20 19 18 17 15 13 13 12 10 9 8 8 7 6 5 5 5 4 4 4 5 6 7 8 9 10 10 11 13 14 15 16 16 17 16 16 16 16 15 14 13 12
25 26 25 24 22 22 22 20 20 19 18 16 14 13 12 11 10 9 8 8 7 7 6 6 5 4 4 5 6 7 8 9 9 10 11 13 14 15 16 16 16 17 16 17 16 16 15 14 14
25 25 25 24 23 22 22 20 19 18 18 17 15 13 13 12 11 10 9 9 8 8 7 7 6 5 4 4 5 6 7 8 9 10 11 12 13 14 15 16 16 17 16 17 16 16 15 14 14
24 24 24 24 24 22 22 21 20 18 17 17 16 14 13 12 12 12 11 10 9 9 8 8 6 5 4 4 5 5 6 7 8 9 11 12 12 13 14 15 16 16 16 16 16 15 15 14 13
24 24 23 23 24 23 22 21 20 18 18 17 16 15 14 13 13 12 12 11 11 10 9 8 7 6 5 4 4 4 5 6 7 9 10 11 12 13 14 14 15 15 16 16 15 15 15 14 13
23 24 23 22 23 22 22 21 19 19 18 18 17 17 15 14 14 13 13 12 11 11 10 10 8 7 5 4 3 3 4 5 6 8 9 10 11 12 13 13 14 14 15 15 15 15 15 14 13
22 22 22 21 21 21 20 19 18 18 18 18 17 17 15 15 15 15 14 13 13 12 11 10 9 8 6 4 3 2 2 3 4 6 8 9 10 11 12 13 13 14 14 14 14 14 14 13 13
21 22 21 20 19 20 20 19 18 18 18 17 17 16 16 15 15 15 15 14 14 13 12 11 10 9 7 5 4 2 1 2 3 5 6 8 9 10 11 12 12 13 13 13 13 13 13 12 12
20 21 21 21 20 19 18 19 18 18 17 17 16 16 16 15 15 15 15 15 14 14 13 12 11 9 8 6 5 3 1 1 2 4 5 6 8 9 9 10 11 12 12 12 12 12 12 12 11
19 20 21 21 20 19 18 18 19 18 17 17 16 16 16 16 16 16 15 15 15 15 14 13 12 10 9 7 6 4 3 2 2 3 4 6 7 8 9 9 10 11 12 12 12 12 12 12 11
Wind_Direction
226 228 230 230 226 230 232 220 208 200 196 195 192 184 190 198 199 199 198 200 203 202 283 344 349 342 336 333 334 337 338 339 339 340 338 339 338 336 332 330 327 324 320 313 304 299 296 284 274
223 228 231 234 230 238 232 221 211 209 205 199 198 193 189 192 193 197 197 200 203 224 312 328 339 330 331 334 334 335 336 337 337 336 334 337 335 331 329 327 324 322 317 312 304 303 295 284 273
224 226 230 236 239 238 229 225 215 214 204 198 194 191 186 185 185 191 193 200 209 242 319 336 337 330 332 333 332 331 332 336 336 336 334 335 333 328 326 325 324 321 316 312 304 300 296 284 272
226 229 232 233 239 237 232 226 219 210 199 191 189 185 180 181 184 187 186 185 195 221 337 351 342 337 337 335 331 331 333 335 334 336 336 335 333 330 327 325 322 319 316 312 305 298 292 284 271
229 229 232 230 232 234 233 223 217 210 199 194 189 186 188 183 184 177 177 171 166 235 328 352 343 334 331 333 334 333 335 337 337 338 338 336 332 329 327 323 321 319 315 311 305 298 288 279 268
228 227 230 227 228 230 229 215 209 207 202 195 189 189 190 184 180 177 176 166 167 273 331 337 334 331 332 336 339 340 341 341 343 344 342 339 335 331 327 325 323 320 315 310 305 299 288 277 270
226 225 224 222 223 225 222 216 207 208 206 200 195 194 185 182 180 178 176 173 188 300 328 329 331 334 338 344 347 348 349 348 348 346 344 342 339 334 331 328 326 323 318 312 306 299 289 280 272
227 225 223 222 222 228 224 219 213 214 210 203 199 191 186 189 187 180 174 177 236 310 326 334 340 343 349 355 356 356 353 351 350 348 346 343 340 337 335 333 331 328 323 316 310 304 296 284 274
225 224 223 222 223 225 225 221 217 218 217 205 197 189 186 191 188 182 177 197 295 320 337 351 351 353 2 3 2 360 356 354 353 351 348 346 343 341 341 340 335 331 325 319 311 305 298 290 278
223 221 223 222 222 223 224 220 215 214 212 202 197 195 187 184 189 190 200 245 312 324 342 356 358 4 8 8 6 1 359 357 356 354 351 348 347 348 346 343 340 335 330 323 314 306 298 291 280
221 220 220 221 219 219 219 215 215 215 214 211 208 202 194 191 195 204 215 249 298 328 348 1 6 8 12 11 6 4 3 1 359 357 355 354 353 351 349 348 345 340 336 329 323 314 304 295 284
222 221 220 219 217 215 214 212 211 210 211 211 210 201 197 201 203 209 220 252 287 320 359 9 11 13 13 13 12 8 5 2 1 1 360 359 358 358 356 354 352 348 343 339 334 328 315 301 287
219 219 218 216 215 212 212 213 213 209 206 209 207 200 196 198 202 207 213 227 256 305 5 9 13 15 14 12 9 7 5 5 5 5 4 4 4 2 1 358 356 353 351 349 344 340 330 318 300
216 214 214 213 213 208 209 214 214 211 207 205 201 195 197 199 204 201 200 202 210 114 41 29 22 20 17 14 9 9 10 8 6 4 4 5 5 5 4 2 1 1 359 357 352 345 339 331 318
215 213 211 211 213 211 211 214 213 210 209 205 202 201 200 201 200 197 198 191 168 120 75 48 38 28 25 19 14 14 12 9 8 7 8 9 9 8 7 6 6 6 6 4 359 355 352 348 341
217 215 212 211 212 212 212 213 216 212 208 205 203 200 200 200 199 196 194 181 163 132 99 70 48 35 32 25 19 17 15 12 12 13 15 15 15 16 15 13 12 11 10 10 11 12 11 11 9
214 211 211 212 212 212 213 213 213 208 205 203 202 200 198 193 196 195 190 179 165 140 110 77 53 45 38 29 23 22 21 19 19 21 23 23 23 23 22 21 21 20 19 21 24 26 29 30 31
214 213 211 212 212 212 212 213 210 207 203 203 199 196 193 188 188 190 186 173 164 147 129 112 81 64 51 42 35 32 29 27 25 27 29 29 28 28 27 27 28 28 27 29 33 36 38 40 42
214 213 211 212 212 210 209 206 203 203 200 198 198 196 190 190 188 187 182 173 162 153 149 136 114 92 71 58 48 42 36 32 31 32 32 32 33 33 32 32 33 32 32 34 38 41 43 44 47
213 212 213 214 213 209 205 202 202 202 202 200 198 195 194 193 187 187 184 179 172 162 155 145 134 110 85 71 59 51 45 40 37 36 36 37 38 36 34 35 35 36 37 39 41 43 45 48 50
211 211 213 214 212 211 208 209 206 205 205 203 198 197 196 195 192 191 189 188 180 172 163 154 143 121 98 81 70 61 52 45 42 44 43 42 41 38 36 37 38 40 42 43 44 46 48 50 54
209 209 210 210 212 212 210 209 206 205 205 206 203 201 197 197 198 196 192 190 183 176 169 161 150 133 112 93 79 67 57 51 49 48 46 45 43 39 37 38 40 43 44 44 45 48 50 52 56
208 207 209 210 212 211 210 208 208 204 202 205 206 206 202 201 202 201 196 190 183 177 172 167 159 146 127 105 88 72 60 55 52 49 47 45 42 39 38 39 42 42 43 43 44 47 49 52 55
204 205 208 210 210 213 212 211 210 209 206 205 206 208 208 206 204 203 199 193 187 182 178 174 168 160 143 121 98 75 61 56 52 49 46 44 41 39 39 40 41 40 41 42 43 45 47 50 52
202 202 204 206 210 214 212 213 212 211 209 209 209 210 211 206 203 201 199 196 194 191 188 183 178 170 156 135 108 79 64 56 50 47 45 43 41 40 40 38 39 39 41 42 43 43 46 48 49
204 203 203 205 210 211 211 211 210 210 211 212 212 212 212 209 204 201 200 199 198 196 193 189 183 178 167 153 129 90 66 56 48 45 43 41 40 40 38 37 36 38 39 40 40 41 44 44 45
202 203 203 206 207 209 210 208 209 208 209 210 210 211 210 209 208 204 203 201 199 198 196 193 191 189 181 172 158 121 70 54 47 44 41 39 39 38 37 36 35 36 35 36 37 38 38 39 39
203 202 204 206 204 208 209 209 206 206 208 210 210 211 208 210 209 205 204 202 202 201 199 198 198 196 191 188 183 167 93 45 39 36 33 33 33 31 30 29 30 30 30 31 31 30 30 31 32
201 203 203 204 205 204 210 209 204 207 209 209 210 210 209 207 206 205 204 204 203 200 199 199 200 200 197 196 198 202 222 337 11 20 21 22 23 22 21 20 21 22 22 22 22 21 20 19 19
201 200 202 203 207 207 205 205 204 208 206 206 206 208 207 207 209 208 207 205 203 200 199 200 203 204 204 204 208 217 233 275 326 345 352 360 6 8 8 8 8 10 11 11 11 11 11 10 7
Height
5888 5889 5890 5891 5892 5893 5892 5892 5892 5893 5893 5893 5894 5894 5895 5897 5898 5900 5898 5896 5897 5896 5896 5896 5895 5895 5894 5893 5893 5892 5891 5890 5888 5887 5886 5885 5884 5882 5881 5880 5879 5878 5877 5877 5876 5875 5875 5874 5874
5887 5888 5890 5891 5891 5892 5892 5891 5892 5892 5892 5893 5893 5894 5895 5895 5896 5896 5896 5896 5896 5896 5896 5895 5895 5894 5894 5893 5892 5891 5890 5889 5888 5887 5885 5884 5883 5882 5880 5879 5878 5877 5876 5875 5874 5873 5873 5873 5872
5886 5887 5889 5890 5890 5891 5891 5891 5891 5891 5891 5892 5893 5894 5895 5895 5896 5896 5896 5896 5896 5896 5895 5895 5894 5894 5893 5892 5892 5891 5889 5888 5887 5886 5884 5883 5882 5881 5879 5878 5876 5875 5874 5873 5872 5872 5871 5871 5870
5885 5887 5888 5889 5889 5889 5890 5890 5890 5890 5891 5891 5892 5893 5894 5895 5895 5895 5895 5896 5896 5896 5895 5894 5894 5893 5893 5892 5891 5890 5889 5888 5886 5885 5884 5882 5881 5879 5878 5876 5875 5874 5872 5871 5871 5870 5869 5869 5869
5883 5886 5887 5887 5887 5888 5888 5889 5889 5889 5890 5890 5892 5893 5893 5894 5894 5895 5895 5895 5895 5895 5895 5894 5894 5893 5892 5892 5891 5890 5888 5887 5885 5884 5883 5881 5880 5878 5877 5875 5873 5872 5871 5870 5869 5868 5867 5867 5867
5882 5884 5886 5886 5886 5887 5887 5888 5888 5889 5889 5890 5891 5892 5893 5893 5894 5894 5895 5895 5895 5895 5894 5894 5893 5893 5892 5891 5890 5889 5888 5886 5885 5883 5882 5880 5878 5877 5875 5873 5872 5870 5869 5868 5867 5866 5865 5865 5865
5881 5882 5883 5884 5885 5886 5887 5887 5887 5888 5889 5889 5891 5892 5892 5893 5893 5894 5894 5895 5895 5894 5894 5894 5893 5893 5892 5891 5890 5888 5887 5886 5884 5883 5881 5879 5877 5875 5874 5872 5870 5869 5867 5866 5865 5864 5863 5863 5862
5878 5881 5881 5883 5884 5885 5886 5886 5887 5888 5888 5889 5890 5891 5892 5893 5893 5894 5894 5894 5894 5894 5894 5893 5893 5892 5891 5890 5889 5888 5887 5885 5884 5882 5880 5878 5876 5874 5872 5870 5868 5867 5865 5864 5863 5862 5861 5861 5860
5875 5879 5879 5881 5882 5884 5884 5885 5886 5887 5888 5888 5889 5890 5891 5892 5892 5893 5894 5894 5894 5894 5894 5893 5892 5892 5891 5890 5889 5888 5886 5885 5883 5881 5879 5877 5875 5873 5871 5869 5867 5865 5863 5862 5861 5860 5859 5858 5858
5873 5875 5877 5879 5880 5882 5883 5884 5885 5886 5887 5888 5889 5890 5890 5891 5892 5893 5893 5894 5894 5893 5893 5893 5892 5891 5891 5890 5889 5887 5886 5884 5882 5881 5879 5876 5874 5872 5870 5867 5865 5863 5861 5860 5858 5857 5856 5855 5855
5869 5872 5874 5876 5878 5880 5881 5882 5883 5884 5886 5887 5888 5889 5890 5890 5891 5892 5893 5893 5893 5893 5893 5892 5892 5891 5890 5889 5888 5887 5886 5884 5882 5880 5878 5876 5873 5871 5869 5866 5864 5862 5860 5858 5856 5855 5854 5853 5852
5866 5869 5871 5874 5876 5878 5879 5881 5882 5883 5885 5886 5887 5888 5889 5890 5891 5892 5892 5893 5893 5893 5892 5892 5892 5891 5890 5889 5888 5887 5885 5884 5882 5880 5877 5875 5873 5870 5868 5865 5863 5860 5858 5856 5854 5852 5851 5850 5850
5863 5866 5869 5871 5874 5876 5878 5879 5881 5882 5883 5884 5885 5887 5888 5889 5890 5891 5892 5892 5892 5892 5892 5892 5892 5891 5890 5889 5888 5887 5885 5884 5882 5879 5877 5875 5872 5870 5867 5864 5862 5859 5857 5854 5852 5850 5849 5848 5848
5860 5863 5866 5869 5872 5874 5876 5878 5880 5881 5882 5883 5884 5886 5887 5888 5889 5890 5891 5892 5892 5892 5892 5892 5891 5891 5890 5889 5888 5887 5885 5883 5882 5879 5877 5874 5872 5869 5866 5864 5861 5858 5856 5853 5851 5849 5847 5846 5846
5857 5861 5864 5867 5869 5872 5874 5876 5877 5879 5881 5882 5883 5885 5886 5887 5888 5890 5890 5891 5892 5892 5892 5891 5891 5891 5890 5889 5888 5887 5885 5883 5881 5879 5877 5874 5871 5869 5866 5863 5861 5858 5855 5852 5850 5848 5846 5845 5844
5854 5858 5861 5864 5867 5870 5874 5874 5875 5877 5879 5881 5882 5884 5885 5886 5888 5889 5890 5891 5891 5891 5892 5891 5891 5891 5890 5889 5888 5887 5885 5884 5882 5879 5877 5874 5872 5869 5866 5863 5860 5857 5855 5852 5850 5847 5846 5844 5843
5851 5855 5858 5862 5864 5867 5870 5872 5873 5875 5877 5879 5881 5883 5884 5885 5887 5888 5889 5890 5891 5891 5891 5891 5891 5891 5890 5890 5889 5887 5886 5884 5882 5880 5877 5875 5872 5869 5866 5863 5860 5857 5855 5852 5850 5848 5846 5844 5843
5848 5852 5855 5859 5862 5865 5867 5869 5871 5873 5875 5877 5879 5881 5883 5885 5886 5887 5888 5889 5890 5891 5891 5891 5891 5891 5891 5890 5889 5888 5886 5885 5883 5880 5878 5876 5873 5870 5867 5864 5861 5858 5855 5853 5851 5848 5846 5845 5844
5845 5849 5852 5855 5858 5862 5864 5867 5869 5872 5874 5876 5878 5880 5882 5884 5885 5887 5888 5889 5890 5890 5891 5892 5892 5892 5891 5891 5890 5889 5887 5886 5883 5881 5879 5877 5874 5871 5868 5865 5862 5859 5856 5854 5852 5850 5848 5846 5845
5841 5845 5849 5852 5855 5859 5862 5865 5868 5870 5872 5875 5877 5879 5881 5883 5884 5886 5887 5888 5889 5890 5891 5892 5892 5892 5892 5891 5891 5889 5888 5886 5885 5882 5880 5878 5875 5872 5869 5866 5863 5861 5858 5855 5853 5851 5849 5848 5846
5838 5842 5846 5850 5853 5857 5860 5863 5866 5868 5870 5873 5875 5877 5880 5882 5884 5885 5887 5888 5889 5890 5891 5892 5893 5893 5892 5892 5891 5890 5889 5887 5886 5884 5882 5879 5877 5874 5871 5868 5865 5863 5860 5857 5855 5853 5851 5849 5848
5835 5838 5843 5847 5851 5854 5858 5861 5863 5866 5868 5871 5874 5876 5878 5880 5882 5884 5886 5887 5888 5890 5891 5892 5893 5893 5893 5893 5892 5892 5890 5889 5887 5885 5883 5881 5878 5876 5873 5870 5867 5865 5862 5860 5857 5855 5853 5852 5850
5831 5836 5840 5844 5848 5852 5855 5858 5862 5863 5867 5870 5872 5875 5877 5879 5881 5883 5885 5886 5888 5889 5891 5892 5893 5893 5894 5893 5893 5892 5891 5890 5888 5886 5884 5882 5880 5877 5875 5872 5870 5867 5865 5862 5860 5857 5855 5854 5852
5829 5834 5838 5842 5845 5850 5853 5856 5860 5862 5865 5867 5870 5873 5875 5877 5879 5881 5883 5885 5887 5888 5890 5892 5893 5893 5894 5894 5893 5893 5892 5891 5889 5888 5886 5884 5881 5879 5877 5874 5872 5869 5867 5864 5862 5860 5858 5856 5855
5827 5832 5836 5839 5843 5847 5850 5853 5857 5860 5862 5865 5868 5871 5873 5876 5878 5880 5882 5884 5886 5888 5890 5891 5892 5893 5893 5894 5894 5893 5892 5891 5890 5889 5887 5885 5883 5881 5878 5876 5874 5871 5869 5867 5864 5862 5860 5859 5857
5825 5830 5835 5839 5841 5845 5847 5850 5855 5857 5860 5862 5865 5868 5871 5874 5876 5878 5880 5883 5885 5887 5888 5890 5892 5892 5893 5893 5893 5893 5893 5892 5891 5890 5888 5886 5884 5882 5880 5878 5875 5873 5871 5869 5867 5865 5863 5861 5859
5823 5827 5831 5836 5839 5842 5845 5849 5853 5855 5857 5860 5863 5866 5869 5872 5874 5876 5879 5881 5883 5885 5887 5889 5890 5892 5892 5893 5893 5893 5893 5892 5891 5890 5889 5887 5886 5884 5882 5879 5877 5875 5873 5871 5869 5867 5865 5863 5861
5822 5825 5829 5833 5837 5840 5844 5847 5851 5853 5855 5858 5861 5864 5867 5870 5872 5874 5877 5879 5882 5884 5886 5888 5889 5890 5891 5892 5893 5893 5893 5892 5891 5891 5889 5888 5886 5885 5883 5881 5879 5876 5874 5872 5870 5868 5866 5864 5863
5820 5823 5827 5831 5834 5839 5842 5847 5848 5851 5853 5856 5859 5862 5865 5867 5870 5872 5875 5877 5880 5882 5884 5886 5888 5889 5890 5891 5892 5892 5892 5892 5891 5890 5889 5888 5887 5885 5883 5882 5880 5878 5875 5873 5871 5869 5867 5865 5864
5818 5821 5825 5829 5832 5835 5839 5846 5845 5848 5851 5853 5856 5859 5862 5865 5867 5870 5873 5875 5877 5880 5882 5884 5886 5888 5889 5890 5890 5891 5891 5891 5890 5890 5889 5888 5886 5885 5883 5882 5880 5878 5876 5874 5872 5870 5868 5866 5864